Terminal Aerodrome Forecast
Issued by NWS

Home | Current Version | Previous Version | Text Only | Print | Product List | Glossary On
Versions: 1 2 3 4 5 6 7 8 9 10 11 12 13 14 15 16 17 18 19 20 21 22 23 24 25
000
FTUS44 KFWD 030310 AAA
TAFDAL
TAF AMD
KDAL 030310Z 0303/0324 10011KT P6SM -RA OVC070
     FM030800 08012KT P6SM -RA OVC030
     FM031000 07014KT 5SM RA VCTS OVC008CB
     FM031600 06012KT 2SM SHRA BR OVC005
     FM032200 04013KT 4SM BR OVC003=

USA.gov is the U.S. government's official web portal to all federal, state and local government web resources and services.